Location: Stone Trail Observatory
(44.2408°N, 105.6081°W)
Time: 09:37:41
(UTC-06:00)

Iridium 6 - Visible Passes

Search period start: 26 April 2015 00:00
Search period end: 06 May 2015 00:00
Orbit: 776 x 779 km, 86.4° (Epoch: 26 April)

Date Brightness Start Highest point End Pass type
(mag) Time Alt. Az. Time Alt. Az. Time Alt. Az.
26 Apr 9.0 04:19:07 10° ENE 04:19:18 10° ENE 04:19:49 10° ENE visible
27 Apr 6.8 05:20:52 10° SSE 05:25:48 46° E 05:30:47 10° NNE visible
28 Apr 7.8 04:48:15 10° SE 04:52:27 26° E 04:56:45 10° NNE visible
29 Apr 8.4 04:16:29 10° ESE 04:19:11 15° ENE 04:22:08 10° NE visible
30 Apr 6.1 05:20:42 10° S 05:25:51 66° E 05:31:02 10° N visible
01 May 7.2 04:47:43 10° SSE 04:52:26 36° E 04:57:12 10° NNE visible
02 May 8.1 04:15:22 10° SE 04:19:06 21° E 04:23:00 10° NNE visible
03 May 8.5 03:44:19 10° E 03:45:53 12° ENE 03:47:45 10° NE visible
04 May 6.4 04:47:25 10° SSE 04:52:26 52° E 04:57:30 10° NNE visible
05 May 7.5 04:14:40 10° SE 04:19:03 29° E 04:23:32 10° NNE visible
